Location: Bletchingley
(51.2333°N, 0.1000°W)
Time: 04:26:11
(UTC+00:00)

Cosmos 2298 Rocket - Pass Details

Date: 18 September 2020
Orbit: 776 x 783 km, 74.0° (Epoch: 20 October)

Event Time Altitude Azimuth Distance (km) Brightness Sun altitude
Rises 19:57:50 0° 195° (SSW) 3,259 7.2 -17.6°
Reaches altitude 10° 20:00:13 10° 194° (SSW) 2,335 6.4 -17.9°
Maximum altitude 20:05:30 72° 111° (ESE) 828 3.9 -18.6°
Drops below altitude 10° 20:10:49 10° 28° (NNE) 2,351 6.5 -19.4°
Sets 20:13:14 0° 27° (NNE) 3,282 7.3 -19.7°
